www.pogodaiklimat.ru
ПОГОДА в Шибенике
Время
(UTC), дата
10 9.12
11 9.12
12 9.12
13 9.12
14 9.12
15 9.12
16 9.12
17 9.12
18 9.12
19 9.12
20 9.12
21 9.12
00 10.12
03 10.12
04 10.12
05 10.12
06 10.12
07 10.12
08 10.12
09 10.12
10 10.12
11 10.12
12 10.12
13 10.12
14 10.12
15 10.12
16 10.12
17 10.12
18 10.12
19 10.12
20 10.12
21 10.12
00 11.12
03 11.12
04 11.12
05 11.12
06 11.12
07 11.12
08 11.12
09 11.12
10 11.12
11 11.12
12 11.12
13 11.12
14 11.12
15 11.12
16 11.12
17 11.12
18 11.12
19 11.12
20 11.12
21 11.12
00 12.12
03 12.12
04 12.12
05 12.12
06 12.12
07 12.12
08 12.12
09 12.12
10 12.12
11 12.12
12 12.12
13 12.12
14 12.12
15 12.12
16 12.12
17 12.12
18 12.12
19 12.12
20 12.12
21 12.12
00 13.12
03 13.12
04 13.12
05 13.12
06 13.12
07 13.12
08 13.12
09 13.12
10 13.12
11 13.12
12 13.12
13 13.12
14 13.12
15 13.12
16 13.12
17 13.12
18 13.12
19 13.12
20 13.12
21 13.12
00 14.12
03 14.12
04 14.12
05 14.12
06 14.12
07 14.12
08 14.12
09 14.12
10 14.12
11 14.12
12 14.12
13 14.12
14 14.12
15 14.12
16 14.12
17 14.12
18 14.12
19 14.12
20 14.12
21 14.12
00 15.12
03 15.12
04 15.12
05 15.12
06 15.12
07 15.12
08 15.12
09 15.12
10 15.12
11 15.12
12 15.12
13 15.12
14 15.12
15 15.12
16 15.12
17 15.12
18 15.12
19 15.12
20 15.12
21 15.12
00 16.12
03 16.12
04 16.12
05 16.12
06 16.12
07 16.12
08 16.12
09 16.12
10 16.12
Ветер
(напр.,м/с)
Видим. Явления Облачность Т
(С)
Тd
(С)
f
(%)
Тe
(С)
Тes
(С)
Комфортность P
(гПа)
Po
(гПа)
Тmin
(С)
Tmax
(С)
R
(мм)
R24
(мм)
S
(см)
В 3 40 км 6/6 600 м
[Cu Sc]
+13.9 +11.1 83 +13 +14 1010.2 1001.3
В 3 40 км 3/3 600 м
[Cu med, cong Ac cuf]
+15.7 +11.0 74 +15 +17 1009.3 1000.4
Ю 4 40 км 4/3 600 м
[Cu med, cong Ac cuf]
+16.8 +9.5 62 +16 +18 1008.4 999.6
ЮВ 4 40 км 5/4 600 м
[Cu med, cong Ac cuf]
+16.4 +9.9 65 +16 +16 1007.2 998.4
ЮВ 4 н/о н/о +16.0 +9.0 63 +15 +15 1007.4 998.5
ЮВ 4 н/о н/о +14.7 +9.1 69 +14 +14 1007.1 998.2
В 2 н/о н/о +13.5 +9.0 74 +13 +13 1007.1 998.1
В 2 н/о н/о +13.7 +9.4 75 +13 +13 1007.0 998.1
В 3 25 км слаб. дождь 10/8 600 м
[Cb calv As op]
+13.8 +9.5 75 +13 +13 1006.4 997.5 +16.9 0.0
В 3 30 км зарница {дождь} 8/8 600 м
[Cb calv]
+13.5 +9.5 77 +12 +12 1006.1 997.2
В 2 30 км зарница 8/5 600 м
[Cb calv Ac trans Ci sp]
+13.3 +9.5 78 +13 +13 1006.4 997.5
СЗ 9 н/о н/о +11.2 +7.0 75 +7 +7 1007.3 998.3
СВ 7 н/о н/о +10.1 +6.5 78 +6 +6 1006.7 997.6
С 5 25 км {дождь} 5/4 1000 м
[Cu Sc Ac cuf]
+8.8 +5.4 79 +5 +5 1006.7 997.6
С 7 25 км зарница 3/3 600 м
[Cb calv Ac lent]
+8.8 +4.0 72 +5 +5 1007.0 997.9
СЗ 8 25 км зарница 3/3 600 м
[Cb calv Ci ing]
+8.8 +4.2 73 +4 +4 1007.6 998.5
С 6 35 км зарница 3/3 600 м
[Cb calv Ac lent Ci fib]
+8.9 +3.2 67 +5 +5 1008.1 999.0 +8.4 2 1.9
С 6 40 км 3/1 1000 м
[Cu med, cong Ac cast Ci ing]
+9.7 +1.9 58 +6 +6 1008.9 999.8
С 7 40 км 5/3 1000 м
[Cu med, cong Ac cast Ci sp]
+11.4 +1.5 51 +9 +9 1009.4 1000.4
С 10
{18}
45 км 8/6 1000 м
[Cu Sc Ci sp]
+11.6 +0.7 47 +8 +8 1010.2 1001.2
С 11
{20}
40 км 8/8 1000 м
[Cu Sc Ci sp]
+11.6 +0.4 46 +8 +8 1011.0 1002.0
С 8
{21}
45 км 8/8 1000 м
[Cu Sc]
+11.7 +1.4 49 +9 +9 1011.5 1002.5
С 9
{19}
45 км 8/8 1000 м
[Cu Sc Ci sp]
+11.9 +1.6 49 +9 +9 1011.3 1002.3 1.9
С 11
{24}
45 км 4/4 1000 м
[Cu Sc Ac lent]
+12.2 +0.4 44 +9 +9 1011.3 1002.3
С 8 н/о н/о +12.2 -0.6 41 +9 +9 1012.1 1003.1
С 8 н/о н/о +10.8 -0.9 44 +8 +8 1013.3 1004.2
С 10 н/о н/о +10.6 -1.7 42 +7 +7 1014.0 1004.9
С 9 н/о н/о +9.8 -1.2 46 +6 +6 1014.5 1005.4
С 10
{24}
30 км 1/1 1000 м
[Sc diur, vesp Ac lent Ci fib]
+8.8 -1.6 48 +4 +4 1015.3 1006.1 +12.9
С 14
{29}
30 км ясно +8.1 -2.7 46 +3 +3 1016.1 1006.9
С 12
{28}
30 км ясно +7.7 -2.6 48 +2 +2 1016.2 1007.0
С 12 н/о н/о +7.5 -4.9 41 +2 +2 1015.8 1006.6
С 9 н/о н/о +6.8 -5.8 40 +2 +2 1016.2 1006.9
С 9
{21}
30 км ясно +6.0 -4.1 48 +1 +1 1014.3 1005.0
С 10
{19}
30 км ясно +6.0 -4.1 48 +1 +1 1014.1 1004.8
С 9 30 км ясно +5.9 -3.9 49 +1 +1 1013.9 1004.6
С 9 40 км 1/0
[Ci sp]
+6.1 -3.6 50 +1 +1 1014.0 1004.7 +5.7
С 6 45 км 1/1 1000 м
[Sc diur, vesp]
+6.1 -2.9 52 +2 +2 1013.7 1004.4
С 7 45 км ясно +7.3 -2.5 50 +3 +3 1013.5 1004.3
С 8 45 км ясно +8.3 -1.7 49 +4 +5 1013.6 1004.4
С 6 45 км ясно +10.1 -0.6 47 +7 +8 1012.8 1003.7
С 6 45 км ясно +10.9 -0.4 46 +8 +10 1011.6 1002.5
С 4 45 км ясно +11.9 +0.2 45 +10 +12 1010.8 1001.8
С 5 45 км ясно +12.2 +0.7 45 +10 +11 1009.8 1000.8
С 6 н/о н/о +11.7 -0.4 43 +9 +9 1009.8 1000.8
С 7 н/о н/о +10.4 -0.7 46 +7 +7 1009.6 1000.5
С 8 н/о н/о +8.5 -0.7 52 +4 +4 1009.5 1000.4
С 9 н/о н/о +7.6 -1.3 53 +3 +3 1009.6 1000.4
С 9 40 км ясно +7.0 -1.1 56 +2 +2 1009.1 999.9 +12.5
С 8 40 км ясно +6.2 -1.0 60 +1 +1 1008.9 999.7
С 6 40 км ясно +6.5 -1.1 58 +2 +2 1008.7 999.5
С 1 н/о н/о +6.1 -1.3 59 +5 +5 1008.6 999.4
С 3 н/о н/о +5.1 -1.1 64 +2 +2 1007.7 998.5
штиль 0 30 км 9/9 1000 м
[Cu Sc]
+6.0 +1.2 71 +5 +5 1005.5 996.3
штиль 0 30 км 9/9 1000 м
[Cu Sc]
+6.4 +2.0 73 +6 +6 1005.4 996.2
С 1 30 км 9/9 1000 м
[Cu Sc]
+6.6 +1.7 71 +6 +6 1005.4 996.2
штиль 0 35 км 9/9 1000 м
[Cu Sc]
+6.7 +1.8 71 +6 +6 1005.3 996.2 +4.8
штиль 0 40 км 9/8 1000 м
[Cu Sc Ac cast Ci sp]
+6.2 +2.5 77 +5 +5 1005.7 996.5
С 1 40 км 9/8 1000 м
[Cu Sc Ac cast Ci sp]
+6.6 +1.9 72 +6 +6 1005.6 996.4
Ю 1 45 км 8/5 1000 м
[Cu Sc Ci sp]
+8.2 +2.8 69 +8 +9 1005.1 996.0
ЮЗ 1 45 км 9/6 1000 м
[Cu Sc Ac lent Ci sp]
+9.2 +4.0 70 +9 +10 1004.8 995.7
С 3 45 км 9/5 1000 м
[Cu Sc Ci sp]
+9.9 +4.6 70 +8 +9 1004.5 995.5
С 4 45 км 9/8 1000 м
[Cu Sc Ac lent Ci sp]
+9.7 +4.4 70 +7 +7 1003.9 994.9
СВ 3 35 км 9/9 1000 м
[Cu Sc]
+9.9 +4.2 68 +8 +8 1003.1 994.1
Ю 1 н/о н/о +10.1 +3.7 64 +10 +10 1002.8 993.8
С 3 н/о н/о +8.7 +3.4 69 +6 +6 1002.9 993.8
С 3 н/о н/о +8.4 +3.5 71 +6 +6 1002.7 993.6
С 3 н/о н/о +8.3 +2.8 68 +6 +6 1002.9 993.8
СВ 1 30 км 10/10 1000 м
[Cu Sc]
+8.1 +3.7 74 +7 +7 1002.3 993.2 +10.4
С 1 30 км 10/0
[As op]
+7.7 +4.1 78 +7 +7 1016.0 1006.8
С 1 30 км 10/0
[As op]
+7.7 +4.2 78 +7 +7 1002.6 993.5
В 1 н/о н/о +8.0 +3.7 74 +7 +7 1002.0 992.9
штиль 0 н/о н/о +6.6 +5.3 91 +6 +6 1001.3 992.2
штиль 0 30 км {дождь} 9/9 600 м
[Cu Sc]
+6.6 +5.1 90 +6 +6 1000.5 991.4
СВ 1 30 км 6/6 600 м
[Cu med, cong]
+6.5 +4.6 88 +5 +5 1000.2 991.1
СВ 3 30 км 1/1 1000 м
[Cu med, cong Ci sp]
+5.8 +4.3 90 +2 +2 999.5 990.4
СВ 3 40 км {дождь} 1/1 1000 м
[Cu med, cong Ci sp]
+6.1 +3.8 85 +3 +3 999.5 990.4 +5.9 3 2.5
СВ 4 45 км 8/1 1000 м
[Cu med, cong Ac lent Ci sp]
+6.2 +3.9 85 +2 +2 999.2 990.1
В 4 45 км 9/1 1000 м
[Cu med, cong Ac lent Ci sp]
+7.4 +4.0 79 +4 +4 998.8 989.7
В 5 45 км 8/1 1000 м
[Cu med, cong Ac lent Ci sp]
+8.2 +4.5 77 +5 +5 998.2 989.2
В 4 40 км 5/1 600 м
[Cu med, cong Ci sp]
+9.9 +4.9 71 +7 +9 996.5 987.5
ЮВ 6 35 км 9/6 600 м
[Cu Sc Ci sp]
+10.7 +4.9 67 +8 +8 994.6 985.7
ЮВ 6 25 км слаб. дождь 10/4 600 м
[Cu Sc As op]
+10.6 +5.0 68 +8 +8 993.1 984.2 0.0 2.5
В 8 40 км в посл. час дождь 9/5 1000 м
[Cu Sc Ci sp]
+11.4 +5.7 68 +8 +8 991.0 982.1
н/о н/о +11.2 +6.2 71 989.4 980.5
В 10 н/о н/о +10.7 +4.4 65 +7 +7 988.0 979.1
В 10 н/о н/о +10.0 +7.1 82 +6 +6 985.7 976.8
В 11 н/о н/о +10.2 +8.0 86 +6 +6 984.4 975.5
В 9-17
{20}
4000 м сильн. дождь 10/4 600 м
[Frnb As op]
+10.7 +9.0 89 +7 +7 982.6 973.8 +12.0 4
В 7 4000 м сильн. дождь 10/4 600 м
[St As op]
+11.2 +10.6 96 +8 +8 981.5 972.7
В 6 6000 м сильн. дождь 10/4 600 м
[Frnb As op]
+11.5 +10.8 95 +8 +8 981.0 972.2
З 4 н/о н/о +10.1 +9.2 94 +7 +7 982.1 973.3
СЗ 1 н/о н/о +9.2 +8.8 97 +8 +8 984.5 975.6
СЗ 7 20 км {дождь} 3/1 1000 м
[Sc diur, vesp Ac lent Ci sp]
+6.6 +0.7 66 +2 +2 989.0 980.0
СЗ 4 20 км 1/1 1000 м
[Sc diur, vesp Ci sp]
+6.1 +0.9 69 +3 +3 991.2 982.2
С 6 20 км ясно +6.3 +0.6 67 +2 +2 992.6 983.6
СЗ 7 30 км 1/1 1000 м
[Sc diur, vesp]
+6.5 +0.8 67 +2 +2 994.7 985.6 +6.1 19 22.9
С 8 40 км 1/1 1000 м
[Sc diur, vesp]
+6.6 +0.7 66 +2 +2 997.1 988.0
С 6 40 км 1/1 1000 м
[Sc diur, vesp]
+8.2 +1.6 63 +4 +5 998.0 989.0
С 8 40 км 1/1 1000 м
[Sc diur, vesp]
+9.6 +2.3 60 +6 +6 999.7 990.7
СЗ 6 40 км 1/1 1000 м
[Sc diur, vesp]
+11.0 +2.6 56 +8 +9 1001.3 992.3
С 4 40 км 1/1 1000 м
[Sc diur, vesp]
+12.0 +2.6 53 +10 +12 1001.5 992.6
СЗ 4 40 км 1/1 1000 м
[Sc diur, vesp]
+13.0 +2.2 48 +12 +13 1001.6 992.7 22.9
СЗ 3 40 км 1/1 1000 м
[Sc diur, vesp]
+13.3 +2.3 47 +12 +14 1002.7 993.8
З 3 н/о н/о +14.1 +3.3 48 +13 +13 1004.1 995.2
З 2 н/о н/о +12.8 +4.6 57 +12 +12 1005.7 996.7
С 2 н/о н/о +9.7 +5.0 73 +8 +8 1007.0 997.9
С 3 н/о н/о +8.6 +4.5 75 +6 +6 1007.9 998.8
С 2 30 км ясно +8.3 +5.9 85 +6 +6 1008.4 999.3 +14.4
В 1 30 км ясно +9.1 +4.4 72 +9 +9 1009.7 1000.6
штиль 0 30 км ясно +7.7 +5.2 84 +7 +7 1010.8 1001.6
штиль 0 н/о н/о +6.9 +3.8 81 +6 +6 1011.4 1002.2
СВ 1 н/о н/о +6.2 +3.4 82 +5 +5 1013.5 1004.3
штиль 0 30 км 8/0
[Cs]
+5.0 +2.5 84 +4 +4 1013.6 1004.3
штиль 0 30 км 8/0
[Cs]
+7.2 0.0 60 +7 +7 1014.0 1004.8
С 1 30 км 8/0
[Ci sp]
+5.5 +1.9 78 +4 +4 1014.4 1005.1
Ю 1 50 км 8/0
[Cc]
+6.4 +1.4 70 +6 +6 1014.7 1005.5 +5.0
штиль 0 50 км 4/1 1000 м
[Sc diur, vesp Ac cast Cc]
+6.3 +2.3 76 +6 +6 1015.4 1006.1
З 1 45 км 3/0
[Ac cast Ci sp]
+7.1 +2.5 73 +6 +7 1016.0 1006.8
В 2 45 км 3/0
[Ac lent Ci fib]
+11.6 +4.3 61 +11 +13 1016.6 1007.5
В 1 45 км 3/0
[Cc]
+14.5 +6.0 57 +15 +18 1016.9 1007.9
Ю 2 45 км 3/0
[Ci sp]
+16.5 +4.9 46 +17 +20 1016.8 1007.9
ЮВ 3 40 км 4/0
[Ci sp]
+17.0 +5.1 45 +17 +19 1016.3 1007.4
В 4 45 км 5/0
[Ac lent Ci sp]
+16.7 +3.9 42 +16 +17 1016.0 1007.1
В 2 н/о н/о +17.0 +3.0 39 +17 +17 1017.1 1008.2
В 3 н/о н/о +15.6 +3.1 43 +15 +15 1017.7 1008.7
В 3 н/о н/о +14.0 +4.9 54 +13 +13 1017.9 1008.9
В 3 н/о н/о +13.5 +6.2 61 +12 +12 1018.3 1009.2
В 2 40 км 1/0
[Ci sp]
+13.1 +8.3 73 +12 +12 1018.1 1009.1 +17.2
В 3 40 км 1/0
[Ci sp]
+13.2 +9.0 76 +12 +12 1018.6 1009.6
В 4 40 км 1/0
[Ci sp]
+13.1 +9.5 79 +11 +11 1019.4 1010.3
В 4 н/о н/о +13.1 +9.4 78 +11 +11 1020.2 1011.1
В 4 н/о н/о +12.5 +7.4 71 +11 +11 1021.0 1011.9
В 5 30 км 1/0
[Ci fib]
+13.0 +9.3 78 +11 +11 1020.8 1011.7
В 5 30 км 1/1 1000 м
[Cu hum]
+13.2 +9.4 78 +11 +11 1020.7 1011.6
В 5 30 км 1/1 1000 м
[Cu hum]
+13.6 +9.2 75 +12 +12 1021.0 1011.9
В 4 45 км 3/3 1000 м
[Sc diur, vesp Ci fib]
+13.2 +9.6 79 +12 +12 1021.7 1012.6 +12.4
В 5 45 км 3/3 600 м
[Cu med, cong Ci fib]
+14.1 +9.8 75 +12 +12 1021.6 1012.6
В 4 35 км 6/6 600 м
[Cu med, cong]
+15.3 +10.7 74 +14 +15 1022.1 1013.1
В 3 35 км 8/8 600 м
[Cu med, cong]
+15.8 +11.7 77 +15 +16 1022.5 1013.5
ЮВ 4 35 км 8/8 600 м
[Cu med, cong]
+16.1 +11.6 75 +15 +16 1022.6 1013.6
Местоположение метеостанции Шибеник (Хорватия): широта 43.73 долгота 15.92 высота над уровнем моря 75 м.
В архиве по умолчанию представлена погода в Шибенике за последнюю неделю. Архивные данные за месяц целиком и за предыдущие месяцы, начиная с января 2011 года, Вы можете получить, выбрав интересующий диапазон дат из раскрывающегося списка и нажав кнопку "Найти!".
*Определитесь, кто Вы:
Внимание! Время в таблицах - всемирное. Для получения местного времени необходимо прибавить поправку, которая равна 1 ч.
Смотрите также архив погоды в соседних городах и на ближайших метеорологических станциях:
Партнеры нашего сайта:      
Пояснения к столбцам:
  • Ветер - указаны скорость ветра в м/с - средняя за 10 мин, порывы в срок и между сроками (в фигурных скобках) и направление, откуда дует ветер: С - северный,
  • СВ - северо-восточный, В - восточный, ЮВ - юго-восточный, Ю - южный, ЮЗ - юго-западный, З - западный, СЗ - северо-западный.
  • Видимость - горизонтальная дальность видимости в метрах или километрах. При видимости от 1 до 10 км при отсутствии осадков обычно наблюдается дымка, при ухудшении видимости до 1 км и менее - туман. В сухую погоду видимость может ухудшаться дымом, пылью или мглою.
  • Явления - указаны атмосферные явления, наблюдавшиеся в срок или в последний час перед сроком; фигурными скобками обозначены явления, наблюдавшиеся между сроками (за 1-3 часа до срока); квадратными скобками обозначены град или гололедные отложения с указанием их диаметра в мм.
  • Облачность - указаны через наклонную черту общая и нижняя облачность в баллах и высота нижней границы облаков в метрах; квадратными скобками обозначены формы облаков: Ci - перистые, Cs - перисто-слоистые, Cc - перисто-кучевые, Ac - высококучевые, As - высокослоистые, Sc - слоисто-кучевые, Ns - слоисто-дождевые, Cu - кучевые, Cb - кучево-дождевые. Подробнее классификацию облаков см. в Атласе облаков (PDF).
  • T - Температура воздуха - температура, измеренная на высоте 2 м над землей.
  • Td - Температура точки росы - температура, при понижении до которой содержащийся в воздухе водяной пар достигнет насыщения.
  • f - Относительная влажность воздуха - влажноcть воздуха, измеренная на высоте 2 м над землей.
  • Te - Эффективная температура - температура, которую ощущает одетый по сезону человек в тени. Характеристика душности погоды. При расчете учитывается влияние влажности воздуха и скорости ветра на теплоощущения человека.
  • Tes - Эффективная температура на солнце - температура, которую ощущает человек, с поправкой на солнечный нагрев. Характеристика знойности погоды. Зависит от высоты солнца над горизонтом, облачности и скорости ветра. Ночью, в пасмурную погоду, а также при ветре 12 м/с и более поправка равна нулю.
  • P - Атмосферное давление - приведенное к уровню моря атмосферное давление.
  • Po - Атмосферное давление - измеренное на уровне метеостанции атмосферное давление.
  • Tmin - Минимальная температура - минимум температуры воздуха на высоте 2 м над землей.
  • Tmax - Максимальная температура - максимум температуры воздуха на высоте 2 м над землей.
  • R - Количество осадков - Количество выпавших осадков за период времени, мм. При наведении курсора мыши на число - период времени, за который выпало указанное количество осадков.
  • R24 - Количество осадков - Количество выпавших осадков за 24 часа, мм.
  • S - Снежный покров - Высота снежного покрова, см. При наведении курсора мыши на число - состояние снежного покрова и степень покрытия местности в баллах.